Location: Arthez
(43.0833°N, 0.2500°W)
Time: 10:31:56
(UTC+00:00)

deb Kosmos-970 - Visible Passes

Search period start: 17 August 2022 00:00
Search period end: 27 August 2022 00:00
Orbit: 899 x 1113 km, 65.8° (Epoch: 16 August)

Date Brightness Start Highest point End Pass type
(mag) Time Alt. Az. Time Alt. Az. Time Alt. Az.
17 Aug ? 01:20:37 10° NW 01:25:33 41° WNW 01:25:33 41° WNW visible
17 Aug ? 20:31:21 10° N 20:32:50 11° N 20:34:19 10° NNE visible
17 Aug ? 22:19:10 10° NNW 22:24:22 21° NNE 22:28:25 13° ENE visible
18 Aug ? 00:07:01 10° NNW 00:13:40 70° NNE 00:13:40 70° NNE visible
18 Aug ? 01:56:34 10° WNW 01:58:55 18° WNW 01:58:55 18° WNW visible
18 Aug ? 21:06:15 10° N 21:09:25 13° NNE 21:12:34 10° NE visible
18 Aug ? 22:53:50 10° NNW 23:00:13 35° NE 23:01:51 31° ENE visible
19 Aug ? 00:42:09 10° NW 00:47:06 44° WNW 00:47:06 44° WNW visible
19 Aug ? 19:52:48 10° N 19:54:04 10° N 19:55:20 10° NNE visible
19 Aug ? 21:40:53 10° NNW 21:45:44 19° NNE 21:50:06 11° ENE visible
19 Aug ? 23:28:39 10° NNW 23:35:21 62° NE 23:35:21 62° NE visible
20 Aug ? 01:17:52 10° NW 01:20:37 21° WNW 01:20:37 21° WNW visible
20 Aug ? 20:27:57 10° N 20:30:41 12° NNE 20:33:25 10° NE visible
20 Aug ? 22:15:32 10° NNW 22:21:41 31° NE 22:23:39 27° ENE visible
21 Aug ? 00:03:43 10° NW 00:08:55 50° NW 00:08:55 50° NW visible
21 Aug ? 21:02:35 10° NNW 21:07:05 17° NNE 21:11:30 10° ENE visible
21 Aug ? 22:50:18 10° NNW 22:57:14 54° NE 22:57:16 54° NE visible
22 Aug ? 00:39:15 10° NW 00:42:32 25° WNW 00:42:32 25° WNW visible
22 Aug ? 19:49:37 10° N 19:51:57 12° NNE 19:54:16 10° NNE visible
22 Aug ? 21:37:14 10° NNW 21:43:07 27° NE 21:45:40 22° ENE visible
22 Aug ? 23:25:17 10° NW 23:30:56 59° NW 23:30:56 59° NW visible
23 Aug ? 01:16:07 10° WNW 01:16:12 10° WNW 01:16:12 10° WNW visible
23 Aug ? 20:24:18 10° NNW 20:28:25 16° NNE 20:32:27 10° ENE visible
23 Aug ? 22:11:58 10° NNW 22:18:45 47° NE 22:19:23 46° ENE visible
24 Aug ? 00:00:41 10° NW 00:04:39 30° WNW 00:04:39 30° WNW visible
24 Aug ? 19:11:17 10° N 19:13:12 11° N 19:15:06 10° NNE visible
24 Aug ? 20:58:56 10° NNW 21:04:32 24° NE 21:07:51 17° ENE visible
24 Aug ? 22:46:53 10° NNW 22:53:07 71° NNW 22:53:07 71° NNW visible
25 Aug ? 00:37:03 10° WNW 00:38:24 14° WNW 00:38:24 14° WNW visible
25 Aug ? 19:46:00 10° N 19:49:43 15° NNE 19:53:22 10° NE visible
25 Aug ? 21:33:38 10° NNW 21:40:16 41° NE 21:41:38 37° ENE visible
25 Aug ? 23:22:09 10° NW 23:26:55 38° WNW 23:26:55 38° WNW visible
26 Aug ? 20:20:38 10° NNW 20:25:56 22° NNE 20:30:11 13° ENE visible
26 Aug ? 22:08:30 10° NNW 22:15:28 76° NE 22:15:28 76° NE visible
